Location: Cluj-Napoca
(46.7712°N, 23.6236°E)
Time: 11:12:32
(UTC+03:00)

ISS - Pass Details

Date: 06 May 2021
Orbit: 417 x 422 km, 51.6° (Epoch: 15 May)

Event Time Altitude Azimuth Distance (km) Brightness Sun altitude
Exits shadow 02:15:21 12° 77° (ENE) 1,374 -0.9 -25.6°
Drops below altitude 10° 02:15:42 10° 75° (ENE) 1,505 -0.6 -25.6°
Sets 02:17:53 0° 67° (ENE) 2,373 0.6 -25.5°
